Theta_e
304 304 304 303 302 302 303 304 306 309 313 313 313 313 313 313 313 306 301 304 304 302 305 309 311 303 300 304 303 306 306 313 305 300 299 299 297 299 300 302 301 299 298 297 297 294 294 315 314 305 308 314 317 317
304 304 304 303 302 302 303 304 306 308 312 312 312 312 313 313 312 309 300 306 308 304 305 307 311 313 308 305 307 313 307 315 317 308 304 304 305 302 300 297 305 298 302 300 302 301 308 313 315 317 318 316 318 318
303 304 305 303 302 301 302 304 306 309 311 311 311 312 313 312 312 310 302 303 307 304 304 300 304 303 306 307 316 308 315 319 317 317 313 310 306 307 301 302 303 304 310 306 306 307 311 315 318 320 320 320 320 319
303 303 303 303 302 301 302 303 306 308 311 311 311 311 311 312 311 311 302 303 305 303 296 302 310 309 310 317 320 317 316 317 317 317 311 309 306 310 306 307 305 307 308 305 306 309 312 314 316 317 319 320 320 320
303 303 301 301 300 301 302 304 306 308 310 311 311 311 311 312 311 308 304 305 306 304 297 301 307 309 310 319 322 318 314 310 308 309 309 309 309 309 307 307 304 310 307 305 304 309 310 312 314 318 317 317 320 320
303 303 301 301 301 301 302 304 306 309 310 311 311 312 312 310 310 300 298 304 307 307 300 295 304 306 313 319 318 315 314 311 308 307 306 306 309 307 303 301 308 310 312 311 310 314 314 316 318 319 318 319 320 321
302 302 300 301 300 301 302 304 307 310 310 310 310 310 310 309 301 301 300 303 306 307 302 296 295 307 312 312 311 312 311 308 306 303 304 304 306 307 302 300 307 309 311 313 314 314 311 315 314 319 320 321 321 323
302 302 301 302 301 301 303 305 307 310 310 309 309 309 309 308 306 300 304 307 307 307 305 296 299 305 311 306 307 307 306 306 306 304 304 305 304 306 302 308 310 312 314 313 314 314 312 316 318 321 323 323 321 321
302 302 301 301 301 301 303 305 308 310 309 309 309 309 305 300 295 300 312 311 313 304 296 299 299 299 308 305 304 304 303 302 303 302 301 302 298 297 303 305 308 309 311 312 315 314 314 314 318 322 322 322 321 320
302 301 301 301 301 301 304 306 309 309 309 309 305 299 295 300 311 312 305 302 303 302 302 299 301 300 305 301 300 302 301 298 298 301 303 299 298 303 306 308 309 310 313 314 312 312 313 313 314 320 319 319 319 318
302 302 301 300 301 302 305 308 309 309 308 301 297 298 304 309 303 301 297 295 295 294 297 299 300 299 303 302 300 301 299 298 295 297 298 295 298 306 310 312 312 311 312 314 315 314 313 313 314 319 319 320 320 320
302 301 300 300 301 303 305 309 309 305 302 301 302 304 304 302 299 298 294 296 295 294 297 298 300 301 304 306 302 301 298 298 295 300 298 297 304 308 312 314 314 314 316 316 317 317 317 318 318 319 319 317 318 320
301 300 300 300 302 304 307 309 308 307 306 305 304 301 299 298 287 292 290 292 293 296 297 296 297 302 304 305 301 299 297 295 298 295 295 301 306 312 314 315 314 314 317 317 317 318 319 318 319 319 317 320 321 320
301 300 300 301 302 306 309 309 308 307 303 299 300 291 293 291 292 294 294 295 299 299 299 298 300 300 301 300 300 297 298 297 292 292 297 302 308 314 314 315 314 314 316 317 317 318 317 317 316 316 316 319 320 318
300 300 300 302 304 308 308 308 308 305 302 301 301 291 291 295 295 296 297 298 301 302 302 300 298 299 298 298 296 295 293 292 292 293 299 305 311 312 311 313 314 314 314 316 319 318 318 317 315 315 317 318 317 317
299 300 300 307 308 308 308 308 306 304 306 304 300 293 293 293 293 298 298 298 301 301 300 300 296 295 294 296 294 293 292 290 294 300 306 308 309 310 311 314 315 316 316 316 318 319 318 317 316 316 316 317 317 316
300 300 306 307 307 307 306 304 304 304 304 301 295 298 296 294 296 298 300 300 301 300 297 296 295 293 295 292 291 293 293 295 300 306 308 308 309 310 312 315 316 317 316 316 317 317 317 318 317 316 314 315 316 317
299 304 307 307 306 305 303 303 305 303 299 297 295 297 299 300 300 300 301 302 302 299 298 297 297 293 291 292 292 297 303 303 305 305 306 306 306 308 314 313 315 315 314 314 315 316 315 315 314 313 314 314 315 315
303 305 307 306 306 305 302 303 305 298 298 298 298 298 300 300 302 301 301 302 302 303 300 298 297 295 297 299 299 301 302 303 303 304 305 307 305 311 312 312 312 311 311 311 311 311 311 311 311 311 312 312 312 313
305 305 305 306 306 301 298 298 304 297 295 298 299 298 299 300 302 303 302 302 301 298 296 295 297 300 301 302 303 304 304 304 304 302 304 304 304 305 308 309 308 307 307 309 309 301 310 311 312 312 311 310 310 311
304 303 305 306 302 300 297 298 299 297 297 297 299 299 298 300 299 300 299 300 299 297 295 299 300 302 303 303 304 305 305 305 304 304 304 301 302 301 303 307 307 305 305 305 306 305 301 307 309 310 311 311 312 312
302 304 301 302 297 297 295 298 296 295 296 297 297 299 296 295 295 296 298 296 294 295 296 302 303 304 303 303 303 304 304 303 302 301 298 299 301 301 302 302 303 303 303 303 304 305 306 307 308 310 311 311 307 311
303 302 299 298 295 292 293 298 294 295 293 294 296 295 294 294 296 298 294 294 295 297 297 302 304 303 303 301 301 299 301 301 300 300 301 301 300 300 300 300 301 299 298 300 302 304 305 300 304 307 309 309 309 309
301 296 293 292 293 290 295 292 294 294 294 293 292 291 292 293 296 294 292 293 296 298 297 298 300 298 297 297 296 296 297 299 299 298 300 298 298 298 298 299 299 300 300 300 300 300 302 303 299 303 304 303 303 302
292 290 289 283 291 291 291 291 291 291 290 291 291 290 291 293 291 291 291 293 295 294 295 296 296 296 295 294 295 296 298 298 298 298 298 298 298 297 298 299 300 300 301 301 301 302 302 303 303 303 302 302 302 302
284 288 285 287 287 289 290 289 289 290 291 290 290 291 291 290 289 287 289 291 294 294 295 295 294 294 293 294 294 295 296 297 298 298 298 298 298 298 298 298 298 300 304 303 303 303 303 303 302 303 302 301 294 300
283 286 287 290 289 290 289 290 290 289 288 287 288 288 288 286 286 289 294 296 295 296 295 294 294 294 293 294 295 296 296 298 299 299 299 299 300 300 301 300 301 303 305 305 305 305 304 304 303 303 303 303 303 302
289 289 285 288 288 288 287 287 287 287 287 289 289 286 286 288 289 293 294 296 296 295 295 296 296 295 295 296 295 296 296 296 298 298 298 298 299 300 301 301 302 293 302 302 303 303 303 302 302 301 301 301 301 302
287 288 288 286 286 285 286 286 287 289 291 289 287 286 288 292 296 296 296 298 296 294 294 293 294 296 296 297 296 295 296 296 297 296 295 294 295 297 301 302 302 302 303 302 292 293 298 299 300 300 300 300 301 301
287 288 287 287 286 285 287 288 288 290 291 291 291 291 291 294 298 300 300 299 298 297 297 296 296 297 296 295 295 297 298 297 296 296 295 295 296 299 301 301 301 301 301 302 302 301 292 298 297 302 301 301 301 301
288 287 286 285 285 287 289 290 290 291 291 290 290 289 288 293 297 299 299 299 299 299 298 298 299 299 299 298 297 296 297 298 299 300 299 300 300 301 301 301 301 302 303 302 301 300 300 300 300 299 300 300 300 298
288 288 286 285 286 289 290 289 288 288 288 288 288 289 289 290 291 297 299 299 298 296 293 297 298 298 300 300 299 299 290 298 297 297 297 298 299 300 300 300 302 302 302 301 300 299 299 299 298 299 300 300 300 300
288 288 288 287 287 288 289 290 288 287 287 287 288 290 290 290 288 294 301 301 298 297 295 296 298 298 299 299 298 298 294 297 293 288 288 287 286 288 293 298 298 299 299 299 298 298 298 298 298 299 300 300 300 300
Wind_Speed
11 11 11 9 9 12 13 14 15 16 11 9 8 7 7 6 6 5 4 5 4 3 6 3 4 2 4 1 1 4 3 4 4 5 3 3 2 2 2 1 0 2 2 1 2 1 4 2 3 4 6 3 4 3
12 12 12 9 9 10 13 15 15 16 11 9 8 7 7 7 8 6 3 2 3 1 7 2 8 15 10 11 4 1 5 2 4 5 1 3 1 2 2 1 1 1 5 3 7 7 5 5 7 6 1 2 3 1
10 11 8 7 6 9 13 15 15 16 9 9 8 8 7 8 8 9 2 2 1 1 6 2 7 1 2 7 5 3 2 3 1 2 4 2 2 4 2 4 1 2 3 2 2 4 7 7 7 7 2 3 3 2
10 8 4 7 9 13 13 15 15 15 9 8 8 8 7 8 9 9 3 2 1 1 2 8 3 6 2 5 5 3 5 4 5 3 3 3 2 3 4 2 3 4 4 3 6 7 7 8 5 4 4 7 6 4
9 9 7 9 12 12 13 13 14 14 9 8 7 7 7 8 8 4 3 5 3 3 3 6 8 5 5 5 7 5 6 4 2 2 2 3 2 4 1 2 3 6 8 6 7 5 3 7 3 4 5 5 5 2
9 10 10 9 12 12 13 13 13 12 9 7 6 6 7 7 6 2 4 2 7 4 1 4 4 3 3 3 7 5 3 3 3 3 2 2 2 4 3 3 7 4 4 5 4 4 7 7 7 4 3 4 6 5
10 11 11 9 11 12 13 13 14 10 8 6 6 7 8 7 3 5 5 3 5 3 2 5 5 3 1 4 3 3 4 2 3 2 1 1 1 4 3 3 7 4 7 7 7 2 5 1 4 2 4 5 0 5
11 12 11 9 11 12 13 15 12 8 6 5 6 8 8 6 7 6 6 12 7 3 2 3 6 3 0 1 2 2 3 2 4 2 1 2 2 2 2 8 6 6 4 3 5 7 4 2 5 3 4 5 5 6
11 10 8 11 11 12 13 14 10 6 5 6 7 9 2 2 3 6 5 14 2 4 3 2 4 5 2 1 2 3 2 2 2 1 2 4 1 3 7 5 6 4 4 4 5 4 1 4 2 4 5 6 8 7
12 10 10 11 13 12 11 11 7 5 7 6 2 2 4 6 3 8 4 3 1 2 2 3 1 3 4 1 0 3 2 3 2 3 2 3 4 5 6 6 8 7 7 4 2 6 3 5 6 6 10 9 6 4
12 11 11 12 13 12 12 6 7 11 5 2 3 4 3 2 3 1 3 4 3 2 3 4 5 2 2 4 4 1 4 2 2 4 5 0 3 3 6 7 5 4 3 5 5 5 5 7 6 7 7 5 2 3
13 12 12 14 13 12 12 10 11 5 3 2 3 4 2 2 1 5 5 1 3 8 3 6 5 5 2 2 5 1 3 1 4 3 4 1 4 3 5 5 6 5 4 2 2 5 3 2 0 0 2 4 5 5
13 12 13 14 14 12 10 8 7 2 8 2 2 4 4 3 3 8 8 3 3 4 5 3 3 3 1 2 4 3 4 5 3 3 3 5 2 2 4 5 6 6 2 1 3 4 7 8 7 5 4 5 6 6
13 13 13 14 13 12 9 8 4 3 0 3 5 5 7 5 6 6 6 6 6 4 5 4 3 4 1 3 3 4 1 4 4 3 5 2 4 2 2 4 2 5 4 3 4 6 7 7 4 3 1 0 2 4
12 13 14 14 15 12 11 7 3 1 3 5 4 7 7 4 2 3 2 2 3 4 5 4 3 3 1 5 2 4 3 2 5 6 4 4 4 4 1 1 0 3 4 3 2 4 5 4 4 4 2 1 4 7
12 11 8 12 12 11 8 3 3 3 4 3 5 2 1 3 1 2 3 2 3 4 3 3 5 3 1 4 4 4 8 5 4 4 4 3 3 3 2 2 2 1 2 4 5 3 4 5 4 4 0 2 3 4
9 5 13 15 13 11 11 3 4 6 3 4 4 2 1 1 3 3 3 3 2 3 4 4 5 3 3 4 3 4 7 5 4 2 2 4 4 4 4 3 4 4 6 6 4 1 2 1 2 1 4 5 6 7
6 4 18 18 11 5 3 4 4 1 6 3 1 3 2 1 2 1 0 2 3 3 4 3 5 4 4 5 2 4 3 0 2 3 2 1 2 1 3 4 2 3 3 4 4 3 2 1 1 3 4 4 5 6
6 9 20 20 6 3 4 4 3 4 3 2 2 1 2 1 1 2 1 2 0 2 6 4 6 2 2 3 3 2 3 2 3 2 1 1 2 3 4 2 3 3 4 4 4 3 3 3 1 2 3 3 3 4
13 10 11 9 5 2 3 2 2 1 2 2 1 1 0 2 2 2 2 3 3 3 7 4 2 2 3 2 3 4 3 3 4 3 2 2 2 3 3 3 2 1 2 4 3 3 3 3 2 2 3 3 3 5
8 5 6 6 4 4 2 2 4 1 2 1 2 1 1 2 4 4 5 3 6 3 3 1 1 1 1 2 3 3 4 3 3 4 4 1 1 2 3 2 2 1 1 1 1 3 2 4 4 4 4 4 3 4
3 5 3 5 3 1 5 1 2 2 1 0 3 2 4 4 4 4 3 6 4 2 1 2 1 2 3 4 3 2 4 5 5 4 4 2 2 2 1 1 2 1 1 0 1 2 3 3 3 3 3 4 4 4
3 3 2 4 4 5 3 1 1 3 4 3 4 5 4 3 2 2 5 2 1 2 2 2 3 3 3 3 4 6 5 3 3 2 2 1 1 2 3 4 2 3 3 2 0 0 1 3 2 3 3 3 3 3
6 6 6 4 5 2 2 3 3 4 4 4 3 3 4 4 5 5 4 2 3 4 4 4 2 4 4 6 4 3 4 2 3 3 2 5 4 1 1 1 1 1 1 2 2 2 1 3 4 2 2 2 3 3
8 7 5 5 2 3 4 3 3 4 3 3 4 4 3 3 4 3 2 3 4 4 4 4 4 3 4 2 2 4 5 3 3 3 2 2 2 2 2 2 2 3 1 1 2 2 2 2 2 1 2 2 4 5
4 1 2 1 2 3 1 3 3 3 2 3 3 1 2 3 3 3 2 3 3 3 3 3 3 4 4 2 2 3 4 3 2 3 2 1 2 2 2 1 1 3 1 1 1 3 5 5 5 6 5 6 6 5
4 3 1 1 1 2 4 3 3 4 4 3 1 2 3 4 4 2 3 2 0 1 1 0 3 4 3 2 2 2 3 3 3 1 1 3 2 1 2 3 3 3 2 2 2 3 3 4 5 6 6 5 5 6
1 2 3 3 4 3 3 4 4 3 1 1 2 3 4 3 2 3 2 4 3 3 2 3 3 2 2 1 0 1 3 3 2 2 2 3 2 2 3 2 3 3 3 3 4 3 3 4 4 5 6 6 8 7
4 3 3 5 4 5 4 3 1 1 0 2 4 2 3 4 4 5 4 6 5 3 5 5 5 5 3 3 2 2 2 2 1 3 5 4 4 4 1 1 3 3 3 4 4 3 4 4 4 5 7 6 7 7
5 2 4 3 4 4 3 1 1 2 1 2 3 4 4 3 5 7 7 8 10 8 5 4 4 5 4 5 5 6 2 2 3 3 3 4 5 3 1 2 3 3 2 2 3 5 6 3 4 4 6 6 6 7
2 4 5 4 3 1 2 1 2 3 3 3 4 4 4 4 2 8 10 9 7 7 8 9 8 7 8 8 5 5 6 4 8 9 6 4 4 3 3 3 3 2 3 3 4 4 4 4 4 5 7 9 10 9
4 3 3 3 2 4 3 3 2 2 2 2 2 3 3 4 4 3 5 6 7 9 8 7 7 7 7 5 4 3 3 4 7 8 9 6 5 5 4 4 4 3 4 5 4 4 4 5 5 6 7 9 10 10
2 2 3 2 3 4 4 3 2 2 3 3 4 3 3 4 4 1 2 3 3 3 5 5 5 4 6 5 5 5 5 4 6 7 9 7 6 6 4 4 4 5 5 5 6 5 7 8 7 7 8 8 8 9
Wind_Direction
238 250 261 274 287 291 294 305 303 302 255 246 248 247 244 235 212 145 262 201 154 217 276 261 309 335 2 76 109 275 38 341 46 72 117 205 146 255 55 314 71 144 110 200 76 51 312 201 306 189 226 288 235 211
246 256 257 249 274 292 294 303 306 304 250 242 242 243 239 231 212 153 274 258 158 208 251 285 254 248 207 216 163 290 171 207 181 92 107 125 123 66 146 256 92 321 175 187 171 221 240 242 233 268 322 314 9 8
277 261 252 230 277 301 296 301 307 305 251 240 237 239 236 233 217 179 223 278 114 239 296 360 260 298 154 211 181 118 279 189 128 163 151 149 115 128 149 244 185 245 153 191 32 253 246 258 268 249 89 218 229 266
278 247 255 274 314 294 292 299 306 307 254 239 236 237 241 241 228 187 185 231 142 173 211 277 315 279 258 170 168 181 146 61 94 65 98 129 152 165 199 199 170 196 128 180 269 285 290 273 252 307 243 233 247 285
280 267 271 286 298 289 292 296 302 298 260 239 235 239 247 246 231 208 215 228 208 127 236 276 304 255 274 194 144 112 101 99 82 60 78 214 134 117 50 78 258 185 188 165 224 233 201 262 220 302 267 272 228 225
269 274 274 279 301 290 290 295 302 291 259 239 238 249 252 240 197 169 306 181 200 175 50 313 285 304 14 142 122 99 90 93 92 129 213 249 250 107 130 201 261 225 217 180 229 190 221 266 270 240 259 245 237 206
262 273 275 278 296 294 289 303 294 273 251 243 251 262 255 235 191 197 195 158 130 118 191 293 299 292 130 95 45 70 44 90 107 128 229 173 226 95 122 200 260 266 246 222 226 199 301 59 313 341 280 282 121 99
257 275 272 289 289 291 287 302 292 267 260 260 266 267 261 246 272 294 244 217 147 174 157 229 263 2 257 108 102 352 88 38 18 149 57 165 22 64 258 251 272 284 296 270 248 217 220 288 2 25 91 118 136 166
255 261 273 292 283 290 286 295 273 275 280 265 269 275 285 191 213 238 116 126 122 141 201 172 181 216 50 60 99 42 67 88 322 167 243 95 349 228 233 256 276 281 243 272 326 246 262 256 185 167 153 174 173 191
243 255 271 284 288 279 291 292 269 299 262 253 237 183 238 218 180 135 23 108 130 266 60 221 183 228 109 149 29 103 19 147 153 248 89 101 252 261 262 260 261 274 256 220 331 322 289 273 198 192 199 204 195 157
239 251 273 276 279 278 292 268 217 229 210 105 208 225 260 321 121 117 163 152 178 212 187 235 185 184 256 134 152 71 162 163 147 248 133 286 281 257 323 323 323 312 289 235 242 293 304 247 206 193 223 236 42 297
236 254 270 272 270 288 287 218 209 201 156 244 275 289 290 197 167 146 182 128 168 202 203 166 216 190 237 141 101 192 143 95 202 145 89 227 252 296 331 325 333 346 8 3 330 294 292 270 14 85 322 346 355 324
238 260 268 271 271 285 254 211 222 338 8 305 198 225 168 213 118 166 181 216 194 178 175 165 185 182 130 67 77 133 127 196 113 66 206 226 260 292 331 326 334 354 39 14 337 18 33 54 59 56 357 314 302 299
246 255 266 266 277 274 196 186 151 57 162 246 210 201 186 196 219 184 171 173 217 159 156 132 122 189 171 83 158 106 168 96 69 131 229 236 204 281 320 309 331 4 15 343 340 54 66 86 75 55 74 311 99 58
253 261 264 275 266 186 172 138 128 161 249 237 220 203 202 215 185 185 175 103 160 140 133 99 64 103 6 102 53 106 95 161 186 210 223 217 203 201 193 298 1 38 10 351 349 85 91 98 91 66 25 179 124 124
249 268 236 202 174 143 124 138 182 219 239 243 242 268 312 88 236 151 157 192 153 137 109 72 123 102 119 133 119 180 135 194 226 207 200 179 197 168 174 174 84 54 45 45 59 108 140 156 176 174 172 266 210 158
237 251 166 162 144 138 158 187 192 221 235 248 265 289 244 119 177 163 149 175 122 103 155 119 87 165 104 100 138 180 174 204 196 181 147 180 172 169 183 113 64 55 49 32 9 90 166 181 144 201 247 268 286 268
247 203 146 131 122 140 161 214 221 158 240 256 224 286 307 270 126 60 96 136 129 132 126 148 126 103 135 139 235 220 208 140 74 125 155 94 58 69 151 137 111 58 55 43 31 39 66 65 309 287 297 307 307 307
188 150 144 144 147 167 204 215 190 217 232 233 269 279 285 313 44 319 318 104 167 157 110 59 76 116 200 210 177 180 139 142 135 145 113 358 64 131 142 103 71 43 23 11 13 23 19 19 352 344 322 325 303 302
105 98 118 135 187 307 264 75 166 336 335 317 322 2 134 97 297 322 3 51 75 54 46 51 131 207 180 220 184 120 121 127 105 65 14 325 0 72 86 90 69 45 15 354 359 357 4 335 298 292 289 296 325 313
74 85 93 165 209 242 68 59 355 272 278 167 313 36 44 24 39 22 25 325 56 40 59 36 31 326 138 103 82 101 123 139 162 151 163 98 12 64 74 89 142 141 181 222 290 307 286 263 280 298 295 284 287 281
111 144 165 203 216 49 90 77 266 270 123 172 36 48 37 23 18 12 312 48 53 332 53 82 75 45 61 67 93 142 144 118 110 104 85 82 51 32 42 166 158 133 96 106 211 267 285 291 298 291 287 289 300 296
165 199 11 17 83 52 17 346 252 0 78 15 16 35 12 26 359 313 62 24 318 315 343 96 87 54 78 38 61 45 39 81 83 88 102 72 41 31 50 43 72 95 64 4 268 351 31 336 10 317 323 333 343 345
28 47 36 35 28 33 336 24 14 28 50 54 70 40 19 9 342 48 69 18 317 326 25 38 62 70 43 36 39 0 352 34 98 68 96 109 99 55 45 8 314 267 249 300 314 331 336 323 331 26 41 42 11 4
63 357 33 1 357 32 36 37 30 55 71 39 64 31 357 14 67 59 52 342 345 352 345 8 53 65 108 71 3 355 5 49 77 87 8 45 73 28 345 291 271 254 280 323 316 320 298 296 311 293 346 342 337 327
90 312 63 352 12 73 11 69 64 91 98 70 65 43 33 69 68 52 16 315 335 345 355 25 82 87 57 52 62 16 340 350 54 67 306 263 235 197 216 236 304 300 257 207 350 325 322 337 338 333 323 323 314 313
69 61 353 337 104 86 67 44 48 62 63 81 127 74 76 71 61 333 314 307 321 305 279 74 91 89 111 72 18 357 359 27 65 119 349 30 23 206 177 155 179 240 287 285 211 212 232 259 280 288 288 286 270 270
68 29 79 334 58 16 96 59 54 52 66 356 67 54 82 87 70 346 351 325 336 346 33 57 60 92 121 123 132 9 8 0 41 61 1 335 348 351 346 359 14 35 50 29 17 18 359 330 314 309 311 298 297 302
33 345 64 40 45 40 43 78 84 318 194 94 98 72 82 53 0 345 338 338 322 29 30 12 354 347 348 339 334 346 326 346 354 292 278 271 310 296 307 331 342 354 0 351 347 357 338 323 310 304 302 298 297 300
354 1 81 41 61 47 326 134 104 310 19 102 110 86 69 64 35 20 17 19 26 21 355 349 353 19 1 356 332 327 310 259 219 206 242 263 246 261 307 312 306 306 307 306 304 308 319 332 319 330 325 320 316 315
346 38 54 49 75 306 298 318 3 31 40 54 27 90 119 136 79 37 27 21 19 23 22 18 12 11 13 5 354 338 330 356 350 329 309 286 292 280 270 272 269 277 297 315 315 301 292 304 307 305 308 309 306 310
28 51 86 57 347 320 18 56 45 65 25 58 39 73 70 62 67 46 8 2 22 22 10 4 7 357 345 343 349 351 315 323 0 354 359 357 340 335 330 330 329 321 299 292 290 289 297 300 293 299 298 299 304 310
49 43 59 58 22 16 343 44 46 45 52 59 49 53 57 83 86 9 349 30 32 1 342 326 320 311 335 351 349 341 341 343 350 355 8 17 357 339 328 332 323 311 308 302 297 294 295 300 298 294 296 294 298 307